Regional Weather Roundup
Issued by NWS Memphis, TN

Home | Current Version | Previous Version | Text Only | Print | Product List | Glossary On
Versions: 1 2 3 4 5 6 7 8 9 10 11 12 13 14 15 16 17 18 19 20 21 22 23 24 25 26 27 28 29 30 31 32 33 34 35 36 37 38 39 40 41 42 43 44 45 46 47 48 49 50
000
ASUS44 KMEG 220910
RWRMEG
MEMPHIS CWA HOURLY WEATHER ROUNDUP
NATIONAL WEATHER SERVICE MEMPHIS TN
300 AM CST WED FEB 22 2017

...WEST TENNESSEE...

CITY           SKY/WX    TMP DP  RH WIND       PRES   REMARKS
MEMPHIS INTL   CLOUDY    60  58  92 SE5       29.86R
NWS MEMPHIS      N/A     59 N/A N/A MISG        N/A
JACKSON        CLOUDY    57  57 100 CALM      29.86R
BOLIVAR        CLOUDY    57  57 100 N5        29.85R
UNION CITY     CLEAR    N/A N/A N/A CALM      29.86F
PARIS          CLOUDY    55  54  94 N7        29.89R
HUNTINGDON     CLOUDY    57  57 100 N7        29.86R


...EASTERN ARKANSAS...

CITY           SKY/WX    TMP DP  RH WIND       PRES   REMARKS
JONESBORO      CLOUDY    60  58  92 E3        29.88S FOG
WEST MEMPHIS   CLOUDY    59  59 100 CALM      29.86R
BATESVILLE     CLOUDY    57  55  94 W3        29.90F
NEWPORT        CLOUDY    58  58 100 MISG        N/A
WALNUT RIDGE   CLOUDY    57  55  94 NW6       29.89S
BLYTHEVILLE    CLOUDY    60  59  96 N8        29.89R
SEARCY         CLOUDY    59  58  96 NW7       29.90S
STUTTGART      CLOUDY    57  50  77 NW7       29.87S VSB 1/4
PINE BLUFF     MOCLDY    57  57 100 N7        29.88S
MONTICELLO     CLOUDY    58  55  90 NW3       29.87R


...NORTH MISSISSIPPI...

CITY           SKY/WX    TMP DP  RH WIND       PRES   REMARKS
TUPELO         CLOUDY    59  56  89 NE7       29.84S
OXFORD         CLOUDY    57  57 100 CALM      29.87R
BATESVILLE     CLOUDY    58  57  97 CALM      29.86S
TUNICA         CLOUDY    57  55  94 CALM      29.87R
CORINTH        CLOUDY    57  55  94 E6        29.85F
GREENWOOD      FOG       54  52  93 CALM      29.83F VSB 1/2
COLUMBUS       CLOUDY    59  59 100 NE7       29.82F
GOLDEN TRIANGL CLOUDY    59  54  82 E6        29.79F


...SOUTHEAST MISSOURI...

CITY           SKY/WX    TMP DP  RH WIND       PRES   REMARKS
KENNETT        CLOUDY    59  59 100 CALM      29.87S FOG
WEST PLAINS    CLOUDY    56  54  93 CALM      29.91F FOG
POPLAR BLUFF   CLOUDY    59  58  96 CALM      29.89R
CAPE GIRARDEAU CLOUDY    54  52  93 NW5       29.89R FOG


...NORTHWEST ALABAMA...

CITY           SKY/WX    TMP DP  RH WIND       PRES   REMARKS
MUSCLE SHOALS  CLOUDY    58  55  90 NE3       29.88S


...MIDDLE TENNESSEE...

CITY           SKY/WX    TMP DP  RH WIND       PRES   REMARKS
NASHVILLE      CLOUDY    57  55  93 NE3       29.90F FOG
CLARKSVILLE    CLOUDY    58  54  86 SE6       29.88F
COLUMBIA       MOCLDY   N/A N/A N/A E3        29.87S


...WESTERN KENTUCKY...

CITY           SKY/WX    TMP DP  RH WIND       PRES   REMARKS
PADUCAH        CLOUDY    56  54  93 S5        29.87S FOG
FORT CAMPBELL  DRIZZLE   57  57 100 N9G18     29.89R


...CENTRAL ARKANSAS...

CITY           SKY/WX    TMP DP  RH WIND       PRES   REMARKS
LITTLE ROCK    CLOUDY    56  56 100 NW7       29.89S FOG


SKY/WX REPORTED AS FAIR MEANS FEW OR NO CLOUDS BELOW
12 THOUSAND FEET.




USA.gov is the U.S. government's official web portal to all federal, state and local government web resources and services.